Volver al catálogo

ARIANE 5 R/B

ActivoGTO
NORAD 57216·ROCKET BODY·🇫🇷 France

Lanzado Jul 5, 2023 desde Guiana Space Centre

Loading…

TLE

EnvejeciendoSource: Space-Track

Época: Sep 14, 2026, 16:19 UTC

1 57216U 23093D   26257.67994063  .00001578  00000-0  78841-3 0  9996
2 57216   3.0433 322.2473 7195685  71.9607 349.3376  2.37564991 27314

Sigue ARIANE 5 R/B en tiempo real con AllMySat

Download on the App Store